Location: Newark
(7.0858°N, 171.3717°E)
Time: 03:03:12
(UTC+00:00)

Transit 4A - Pass Details

Date: 03 December 2020
Orbit: 864 x 980 km, 66.8° (Epoch: 20 January)

Event Time Altitude Azimuth Distance (km) Brightness Sun altitude
Rises 05:31:46 0° 345° (NNW) 3,598 10.9 9.4°
Reaches altitude 10° 05:34:21 10° 348° (NNW) 2,637 10.2 8.8°
Maximum altitude 05:40:26 66° 70° (ENE) 993 8.0 7.4°
Drops below altitude 10° 05:46:19 10° 151° (SSE) 2,560 10.2 6.1°
Sets 05:48:47 0° 154° (SSE) 3,486 10.9 5.5°
